This is the latest recevied weather packets stored in our database for station/object DB8NZ-22. If no packets are shown the sender has not sent any weather packets the latest 10 day(s).
| Time | Temp. | Humidity | Pressure | Rain* | Wind** | Luminosity | Snow |
|---|---|---|---|---|---|---|---|
| 1777564395 | 27.78° C | 12% | 1026.6 hPa | - | - | - | - |
| 1777563495 | 27.78° C | 11% | 1026.7 hPa | - | - | - | - |
| 1777562595 | 27.78° C | 12% | 1026.7 hPa | - | - | - | - |
| 1777561695 | 27.78° C | 12% | 1026.9 hPa | - | - | - | - |
| 1777560794 | 27.22° C | 12% | 1026.9 hPa | - | - | - | - |
| 1777559894 | 27.78° C | 12% | 1026.9 hPa | - | - | - | - |
| 1777558994 | 27.22° C | 13% | 1027.3 hPa | - | - | - | - |
| 1777558094 | 26.67° C | 13% | 1027.4 hPa | - | - | - | - |
| 1777557194 | 26.11° C | 14% | 1027.4 hPa | - | - | - | - |
| 1777556294 | 25.56° C | 15% | 1027.6 hPa | - | - | - | - |
| 1777555394 | 25° C | 15% | 1027.9 hPa | - | - | - | - |
| 1777554494 | 24.44° C | 16% | 1028.1 hPa | - | - | - | - |
| 1777553594 | 23.33° C | 16% | 1028.2 hPa | - | - | - | - |
| 1777552694 | 22.78° C | 16% | 1028.3 hPa | - | - | - | - |
| 1777551794 | 22.22° C | 16% | 1028.5 hPa | - | - | - | - |
| 1777550894 | 21.67° C | 17% | 1028.6 hPa | - | - | - | - |
| 1777549993 | 20.56° C | 18% | 1028.7 hPa | - | - | - | - |
| 1777549093 | 21.11° C | 17% | 1029 hPa | - | - | - | - |
| 1777548193 | 20° C | 17% | 1029 hPa | - | - | - | - |
| 1777547293 | 19.44° C | 18% | 1029.2 hPa | - | - | - | - |
| 1777546393 | 18.89° C | 19% | 1029.1 hPa | - | - | - | - |
| 1777545493 | 18.33° C | 20% | 1029.5 hPa | - | - | - | - |
| 1777544593 | 18.33° C | 21% | 1029.7 hPa | - | - | - | - |
| 1777543693 | 17.78° C | 22% | 1029.8 hPa | - | - | - | - |
| 1777543190 | 17.22° C | 23% | 1029.8 hPa | - | - | - | - |
* Rain since midnight (hover to see other rain measurements)
** Current wind speed in m/s (hover to see current wind gust speed)